GW3332 Weather Reports


time (UTC)temp
C
wind
direction
speed
KPH
gust
KPH
rain 1hr
cm
rain 24hr
cm
rain mn
cm
humidity
%
barometer
mb
20260507172433 15 158 17.7 35.4 0.00 0.20 0.28 55 1007.3
20260507171935 15 225 20.9 35.4 0.00 0.20 0.28 56 1007.9
20260507171413 15 248 17.7 35.4 0.00 0.20 0.28 56 1007.9
20260507170905 15 203 6.4 32.2 0.00 0.20 0.28 58 1008.4
20260507170354 14 225 14.5 25.7 0.00 0.20 0.28 61 1008.4
20260507165843 14 248 12.9 22.5 0.00 0.20 0.28 62 1008.7
20260507165333 14 180 11.3 22.5 0.00 0.20 0.28 62 1008.6
20260507164314 14 180 6.4 17.7 0.00 0.20 0.28 64 1008.8
20260507163802 14 248 6.4 22.5 0.00 0.20 0.28 66 1009.3
20260507163252 14 203 8.0 22.5 0.00 0.20 0.28 65 1009.8
20260507162742 14 270 12.9 22.5 0.00 0.20 0.28 64 1010.3
20260507162233 14 225 11.3 17.7 0.00 0.20 0.28 65 1010.8
20260507161722 14 23 8.0 17.7 0.00 0.20 0.28 67 1011.0
20260507161212 13 135 11.3 17.7 0.00 0.20 0.28 67 1010.8
20260507160703 13 203 4.8 17.7 0.00 0.20 0.28 69 1011.0
20260507160151 13 225 4.8 22.5 0.00 0.20 0.28 67 1010.7
20260507155643 13 203 9.7 22.5 0.00 0.20 0.28 65 1010.5
20260507155132 13 225 11.3 25.7 0.00 0.20 0.28 66 1009.9
20260507154116 13 90 11.3 24.1 0.00 0.20 0.28 64 1009.6
20260507153608 13 248 9.7 27.4 0.00 0.20 0.28 65 1009.9
20260507153051 13 225 6.4 27.4 0.00 0.20 0.28 66 1009.9
20260507152031 13 225 14.5 25.7 0.00 0.20 0.28 69 1009.7
20260507151520 13 248 12.9 25.7 0.00 0.20 0.28 69 1009.7
20260507151011 13 225 9.7 25.7 0.00 0.20 0.28 69 1009.7
20260507145952 13 203 12.9 20.9 0.00 0.20 0.28 70 1009.3
20260507145440 13 248 9.7 17.7 0.00 0.20 0.28 70 1009.5
20260507143909 13 180 6.4 14.5 0.00 0.20 0.28 71 1009.0
20260507143359 13 248 4.8 17.7 0.00 0.20 0.28 74 1010.2
20260507142850 13 225 11.3 17.7 0.00 0.20 0.28 74 1010.5
20260507141319 13 293 3.2 6.4 0.00 0.20 0.28 77 1011.5
20260507140810 13 338 3.2 9.7 0.00 0.20 0.28 75 1011.4
20260507140259 13 68 3.2 11.3 0.00 0.20 0.28 72 1011.0
20260507135748 13 225 4.8 12.9 0.00 0.20 0.28 71 1010.6
20260507135239 13 225 6.4 20.9 0.00 0.20 0.28 71 1010.8
20260507134728 13 225 6.4 20.9 0.00 0.20 0.28 71 1011.0
20260507133709 13 225 6.4 24.1 0.00 0.20 0.28 73 1010.7
20260507133200 13 225 14.5 24.1 0.00 0.20 0.28 72 1010.7
20260507132648 13 248 11.3 22.5 0.00 0.20 0.28 72 1010.4
20260507132139 13 135 9.7 22.5 0.00 0.20 0.28 70 1010.0
20260507131629 13 135 6.4 27.4 0.00 0.20 0.28 70 1009.9
20260507131130 14 203 12.9 27.4 0.00 0.20 0.28 69 1008.9
20260507130110 13 248 9.7 27.4 0.00 0.20 0.28 70 1008.9
20260507125547 13 225 11.3 24.1 0.00 0.20 0.28 72 1008.6
20260507125039 13 225 9.7 24.1 0.00 0.20 0.28 71 1008.6
20260507124527 13 203 11.3 24.1 0.00 0.20 0.28 71 1008.5
20260507122958 14 203 9.7 20.9 0.00 0.20 0.28 72 1008.1
20260507122447 14 113 12.9 35.4 0.00 0.20 0.28 71 1008.0
20260507121937 14 203 12.9 35.4 0.00 0.20 0.28 69 1008.2
20260507120917 14 225 20.9 33.8 0.00 0.20 0.28 67 1007.5
20260507120406 14 203 17.7 32.2 0.00 0.20 0.28 68 1007.5
20260507114837 15 225 11.3 29.0 0.00 0.20 0.28 69 1007.9
20260507113816 15 158 16.1 29.0 0.00 0.20 0.28 69 1007.2
20260507113306 15 203 12.9 29.0 0.00 0.20 0.28 70 1006.7
20260507112755 15 135 12.9 25.7 0.00 0.20 0.28 72 1006.5
20260507112245 14 293 16.1 29.0 0.00 0.20 0.28 72 1005.6
20260507111735 15 203 8.0 29.0 0.00 0.20 0.28 70 1005.6
20260507111226 15 113 16.1 29.0 0.00 0.20 0.28 69 1005.7
20260507110715 15 248 12.9 29.0 0.00 0.20 0.28 71 1005.4
20260507110206 15 158 16.1 29.0 0.00 0.20 0.28 71 1005.3
20260507105657 15 270 14.5 37.0 0.00 0.20 0.28 70 1005.0
20260507105145 15 338 12.9 38.6 0.00 0.20 0.28 70 1004.9
20260507104636 15 203 14.5 38.6 0.00 0.20 0.28 70 1005.0
20260507104123 15 180 14.5 35.4 0.00 0.20 0.28 71 1005.1
20260507103615 15 23 14.5 35.4 0.00 0.20 0.28 71 1005.1
20260507103105 15 135 16.1 37.0 0.00 0.20 0.28 72 1004.9
20260507102557 16 180 12.9 37.0 0.00 0.20 0.28 74 1004.9
20260507102044 16 158 14.5 37.0 0.00 0.20 0.28 76 1005.0
20260507101535 16 225 20.9 35.4 0.00 0.20 0.28 76 1004.8
20260507101023 16 180 16.1 35.4 0.00 0.20 0.28 78 1004.5
20260507100515 16 180 9.7 38.6 0.00 0.20 0.28 79 1004.5
20260507100003 16 180 17.7 40.2 0.00 0.20 0.28 80 1004.7
20260507095454 16 270 17.7 40.2 0.00 0.20 0.28 80 1004.7
20260507094944 16 203 16.1 43.5 0.00 0.20 0.28 81 1004.5
20260507094431 16 135 19.3 43.5 0.00 0.20 0.28 81 1004.7
20260507093412 17 158 12.9 33.8 0.00 0.20 0.28 85 1005.1
20260507092352 17 203 17.7 43.5 0.00 0.20 0.28 87 1005.0
20260507091842 17 180 14.5 43.5 0.00 0.20 0.28 88 1005.1
20260507090824 17 135 17.7 35.4 0.00 0.20 0.28 89 1005.1
20260507090312 17 180 14.5 38.6 0.00 0.20 0.28 89 1004.9
20260507085254 17 203 17.7 49.9 0.00 0.20 0.28 90 1004.6
20260507084232 18 135 12.9 29.0 0.00 0.20 0.28 90 1004.5
20260507082151 17 203 16.1 33.8 0.00 0.20 0.28 91 1004.6
20260507081642 17 203 17.7 27.4 0.00 0.20 0.28 94 1004.6
20260507081131 17 158 14.5 25.7 0.00 0.20 0.28 96 1004.8
20260507080622 17 135 9.7 17.7 0.00 0.20 0.28 97 1004.7
20260507080112 17 113 8.0 14.5 0.00 0.20 0.28 97 1004.7
20260507075600 17 180 6.4 14.5 0.03 0.20 0.28 97 1004.6
20260507075051 17 180 6.4 14.5 0.20 0.20 0.28 97 1004.8
20260507074030 17 203 4.8 9.7 0.20 0.20 0.28 97 1005.1
20260507073520 17 225 3.2 11.3 0.20 0.20 0.28 96 1004.9
20260507073012 17 248 6.4 12.9 0.20 0.20 0.28 96 1005.0
20260507072500 17 248 3.2 14.5 0.20 0.20 0.28 96 1004.7
20260507071949 17 113 6.4 14.5 0.20 0.20 0.28 96 1004.6
20260507071439 17 113 8.0 17.7 0.20 0.20 0.28 96 1004.5
20260507070931 17 158 6.4 17.7 0.20 0.20 0.28 95 1004.7
20260507070427 17 113 9.7 32.2 0.20 0.20 0.28 95 1004.6
20260507065909 18 180 11.3 32.2 0.20 0.20 0.28 94 1004.5
20260507065400 18 180 11.3 17.7 0.18 0.18 0.23 93 1004.7
20260507064846 18 338 6.4 0.0 0.00 0.00 0.03 91 1006.8
20260507064649 18 270 8.0 0.0 0.00 0.00 0.03 91 1007.2
20260507064033 18 135 4.8 22.5 0.00 0.00 0.00 92 1003.0
20260507063012 18 135 9.7 14.5 0.00 0.00 0.00 91 1002.9
20260507062501 18 158 6.4 14.5 0.00 0.00 0.00 91 1003.6
20260507061950 18 203 6.4 14.5 0.00 0.00 0.00 91 1003.8
20260507061442 18 225 6.4 14.5 0.00 0.00 0.00 91 1003.8
20260507060930 18 203 8.0 12.9 0.00 0.00 0.00 91 1003.9
20260507060422 18 225 6.4 17.7 0.00 0.00 0.00 91 1003.3
20260507055910 18 225 6.4 17.7 0.00 0.00 0.00 91 1003.8
20260507055402 18 180 6.4 17.7 0.00 0.00 0.00 91 1003.7
20260507054851 18 248 9.7 17.7 0.00 0.00 0.00 91 1003.4
20260507054340 18 180 6.4 14.5 0.00 0.00 0.00 91 1003.2
20260507053830 18 225 8.0 14.5 0.00 0.00 0.00 91 1003.4
20260507053322 18 225 6.4 17.7 0.00 0.00 0.00 91 1003.4
20260507052810 18 225 6.4 17.7 0.00 0.00 0.00 91 1003.3
20260507051240 18 248 9.7 17.7 0.00 0.00 0.00 92 1003.2
20260507050221 18 248 6.4 17.7 0.00 0.00 0.00 91 1003.2
20260507045711 18 270 9.7 14.5 0.00 0.00 0.00 91 1002.9
20260507045159 18 225 6.4 20.9 0.00 0.00 0.00 92 1002.9
20260507044649 19 158 6.4 20.9 0.00 0.00 0.00 91 1003.1
20260507044139 19 225 8.0 20.9 0.00 0.00 0.00 90 1002.8
20260507043630 19 248 9.7 20.9 0.00 0.00 0.00 89 1002.9
20260507043119 20 225 6.4 20.9 0.00 0.00 0.00 87 1003.1
20260507042608 20 248 4.8 20.9 0.00 0.00 0.00 86 1003.4
20260507042100 20 180 11.3 25.7 0.00 0.00 0.00 86 1003.2
20260507041548 20 203 11.3 25.7 0.00 0.00 0.00 85 1002.8
20260507040528 20 203 11.3 33.8 0.00 0.00 0.00 83 1003.4
20260507040020 21 225 20.9 33.8 0.00 0.00 0.00 83 1003.1
20260507035508 22 180 17.7 33.8 0.00 0.00 0.00 83 1003.3
20260507034958 24 180 12.9 20.9 0.00 0.00 0.00 84 1003.1
20260507034448 24 23 4.8 11.3 0.00 0.00 0.00 87 1002.5
20260507033939 24 338 4.8 11.3 0.00 0.00 0.00 86 1002.6
20260507033429 24 293 6.4 12.9 0.00 0.00 0.00 86 1002.6
20260507032918 24 23 4.8 12.9 0.00 0.00 0.00 87 1002.5
20260507032408 24 315 4.8 6.4 0.00 0.00 0.00 87 1002.7
20260507031858 24 338 4.8 6.4 0.00 0.00 0.00 87 1002.6
20260507031347 23 315 3.2 6.4 0.00 0.00 0.00 88 1002.6
20260507030837 23 293 3.2 6.4 0.00 0.00 0.00 88 1002.6
20260507030327 23 338 3.2 6.4 0.00 0.00 0.00 88 1002.4
20260507025308 23 338 1.6 3.2 0.00 0.00 0.00 88 1002.4
20260507024756 23 293 1.6 6.4 0.00 0.00 0.00 88 1002.4
20260507023736 23 338 0.0 3.2 0.00 0.00 0.00 88 1002.7
20260507023228 23 338 0.0 3.2 0.00 0.00 0.00 88 1002.7
20260507022718 23 338 0.0 3.2 0.00 0.00 0.00 88 1002.6
20260507022206 23 338 1.6 3.2 0.00 0.00 0.00 87 1002.7
20260507021146 23 315 3.2 3.2 0.00 0.00 0.00 86 1003.1
20260507020635 23 225 0.0 0.0 0.00 0.00 0.00 86 1003.0
20260507020139 23 225 0.0 3.2 0.00 0.00 0.00 86 1003.0
20260507015616 23 225 0.0 3.2 0.00 0.00 0.00 86 1003.1
20260507015105 23 225 0.0 3.2 0.00 0.00 0.00 86 1003.4
20260507014557 23 225 3.2 3.2 0.00 0.00 0.00 85 1003.5
20260507014047 24 90 0.0 3.2 0.00 0.00 0.00 85 1003.1
20260507013536 24 90 0.0 3.2 0.00 0.00 0.00 85 1003.2
20260507012005 23 180 0.0 3.2 0.00 0.00 0.00 85 1003.5
20260507011457 23 180 0.0 3.2 0.00 0.00 0.00 85 1003.7
20260507010434 24 203 0.0 6.4 0.00 0.00 0.00 85 1003.9
20260507005924 24 225 3.2 6.4 0.00 0.00 0.00 84 1003.9
20260507005414 24 270 0.0 3.2 0.00 0.00 0.00 84 1003.9
20260507004904 24 293 0.0 3.2 0.00 0.00 0.00 84 1003.7
20260507003845 25 315 0.0 3.2 0.00 0.00 0.00 84 1003.6
20260507003334 25 315 1.6 3.2 0.00 0.00 0.00 83 1003.4
20260507002823 25 315 1.6 3.2 0.00 0.00 0.00 83 1003.2
20260507002315 25 315 0.0 0.0 0.00 0.00 0.00 83 1003.1
20260507001803 25 315 0.0 0.0 0.00 0.00 0.00 83 1003.0
20260507001308 25 315 0.0 0.0 0.00 0.00 0.00 83 1003.1
20260507000744 25 315 0.0 0.0 0.00 0.00 0.00 83 1002.9
20260507000234 25 315 0.0 0.0 0.00 0.00 0.00 82 1002.9
20260506235722 25 315 0.0 3.2 0.00 0.00 0.00 82 1002.9
20260506234703 25 23 0.0 3.2 0.00 0.00 0.00 82 1002.6
20260506234154 25 23 1.6 3.2 0.00 0.00 0.00 82 1002.6
20260506233642 25 338 3.2 3.2 0.00 0.00 0.00 82 1002.5
20260506233133 25 338 1.6 3.2 0.00 0.00 0.00 80 1002.7
20260506232622 25 338 0.0 3.2 0.00 0.00 0.00 80 1002.8
20260506232112 25 338 0.0 3.2 0.00 0.00 0.00 80 1002.8
20260506231052 25 338 0.0 3.2 0.00 0.00 0.00 79 1002.5
20260506230544 26 338 1.6 3.2 0.00 0.00 0.00 79 1002.5
20260506230033 25 315 3.2 3.2 0.00 0.00 0.00 79 1002.4
20260506225011 25 315 1.6 6.4 0.00 0.00 0.00 79 1002.6
20260506224501 26 315 1.6 6.4 0.00 0.00 0.00 79 1002.3
20260506223953 26 0 3.2 6.4 0.00 0.00 0.00 78 1002.3
20260506223443 26 23 1.6 6.4 0.00 0.00 0.00 78 1002.2
20260506222421 26 338 3.2 9.7 0.00 0.00 0.00 77 1002.3
20260506221910 26 338 3.2 11.3 0.00 0.00 0.00 77 1002.0
20260506220852 26 338 4.8 6.4 0.00 0.00 0.00 76 1001.9
20260506215830 27 0 3.2 9.7 0.00 0.00 0.00 75 1002.1
20260506215322 27 338 3.2 9.7 0.00 0.00 0.00 74 1002.1
20260506214810 27 338 4.8 9.7 0.00 0.00 0.00 73 1002.1
20260506214259 27 338 4.8 11.3 0.00 0.00 0.00 73 1002.0
20260506213750 27 23 6.4 11.3 0.00 0.00 0.00 73 1001.9
20260506213241 27 23 6.4 17.7 0.00 0.00 0.00 72 1001.9
20260506212219 28 0 9.7 20.9 0.00 0.00 0.00 70 1001.7
20260506211709 28 315 9.7 20.9 0.00 0.00 0.00 69 1001.6
20260506211201 28 0 12.9 27.4 0.00 0.00 0.00 68 1001.1
20260506210139 29 0 12.9 22.5 0.00 0.00 0.00 67 1001.8
20260506205629 29 0 12.9 20.9 0.00 0.00 0.00 66 1001.9
20260506205118 29 45 11.3 17.7 0.00 0.00 0.00 66 1002.2
20260506204609 29 23 9.7 17.7 0.00 0.00 0.00 67 1002.4
20260506204100 29 23 6.4 17.7 0.00 0.00 0.00 67 1002.6
20260506203548 29 315 9.7 17.7 0.00 0.00 0.00 67 1002.6
20260506203042 29 0 6.4 20.9 0.00 0.00 0.00 67 1002.3
20260506202529 29 68 6.4 20.9 0.00 0.00 0.00 67 1002.5
20260506202018 29 0 4.8 20.9 0.00 0.00 0.00 67 1002.6
20260506200958 30 23 12.9 17.7 0.00 0.00 0.00 66 1002.6
20260506200450 30 315 6.4 24.1 0.00 0.00 0.00 65 1002.5
20260506195939 30 45 6.4 29.0 0.00 0.00 0.00 65 1002.5
20260506195427 30 23 12.9 40.2 0.00 0.00 0.00 65 1002.7
20260506194917 30 338 8.0 40.2 0.00 0.00 0.00 64 1002.6
20260506193859 30 315 16.1 43.5 0.00 0.00 0.00 63 1002.5
20260506193348 30 315 17.7 43.5 0.00 0.00 0.00 62 1002.6
20260506192327 30 338 16.1 35.4 0.00 0.00 0.00 64 1002.6
20260506191817 30 0 19.3 37.0 0.00 0.00 0.00 64 1002.6
20260506191307 30 23 17.7 37.0 0.00 0.00 0.00 64 1002.7
20260506190756 30 338 14.5 35.4 0.00 0.00 0.00 65 1002.5
20260506190246 31 0 12.9 33.8 0.00 0.00 0.00 63 1002.5
20260506185738 30 338 16.1 35.4 0.00 0.00 0.00 63 1003.0
20260506185226 30 338 17.7 35.4 0.00 0.00 0.00 64 1003.0
20260506184716 30 338 11.3 33.8 0.00 0.00 0.00 64 1002.9
20260506184206 30 270 17.7 33.8 0.00 0.00 0.00 64 1003.0
20260506183656 30 23 14.5 37.0 0.00 0.00 0.00 64 1002.9
20260506183150 30 293 12.9 37.0 0.00 0.00 0.00 64 1003.0
20260506182127 30 315 16.1 32.2 0.00 0.00 0.00 64 1003.1
20260506181615 30 0 12.9 32.2 0.00 0.00 0.00 63 1003.3
20260506181118 30 23 17.7 32.2 0.00 0.00 0.00 65 1003.4
20260506180555 30 338 16.1 27.4 0.00 0.00 0.00 64 1003.6
20260506180059 30 270 14.5 35.4 0.00 0.00 0.00 64 1003.5
20260506175536 30 0 11.3 35.4 0.00 0.00 0.00 64 1003.5
20260506175024 30 338 12.9 35.4 0.00 0.00 0.00 64 1003.7
20260506174517 30 23 16.1 29.0 0.00 0.00 0.00 64 1003.7
20260506174006 30 338 14.5 32.2 0.00 0.00 0.00 63 1003.8
20260506173454 30 180 12.9 38.6 0.00 0.00 0.00 65 1003.9
20260506172945 30 338 17.7 38.6 0.00 0.00 0.00 63 1004.0